#timestamp,LO_Frequency,Hit,StdDev 
1696147215.6,286046999.9,N
1696147235.5,286047000.8,N
1696147255.3,286047000.9,N
1696147275.1,286046998.1,N
1696147295.9,286047000.7,N
1696147315.7,286046998.5,N
1696147335.5,286046997.1,N
1696147355.4,286046996.0,N
1696147375.2,286046993.7,N
1696147395.1,286046996.3,N
1696147396.0,286046996.3,N
1696147415.8,286046993.5,N
1696147435.6,286046993.4,N
1696147455.5,286046994.7,N
1696147475.3,286046992.6,N
1696147495.2,286046992.3,N
1696147515.9,286046994.8,N
1696147535.7,286046993.0,N
1696147555.6,286046990.3,N
1696147575.4,286046990.1,N
1696147595.2,286046990.8,N
1696147615.1,286046988.9,N
1696147616.0,286046988.9,N
1696147635.8,286046989.2,N
1696147655.7,286046989.2,N
1696147675.5,286046989.3,N
1696147695.3,286046987.1,N
1696147715.2,286046988.3,N
1696147735.0,286046986.6,N
1696147735.9,286046986.6,N
1696147755.8,286046984.0,Y
1696147775.6,286046990.1,P
1696147795.4,286046990.3,P
1696147815.3,286046992.4,P
1696147835.1,286046993.0,Y
1696147855.9,286047002.7,P
1696147875.7,286047002.4,N
1696147895.5,286046999.7,N
1696147915.4,286047001.2,N
1696147935.2,286046997.8,N
1696147955.0,286046995.7,N
1696147955.9,286046995.7,N
1696147975.8,286046996.4,N
1696147995.6,286046994.1,N
1696148015.5,286046994.2,N
1696148035.3,286046992.2,N
1696148055.1,286046992.0,N
1696148075.9,286046992.6,N
1696148095.7,286046992.0,N
1696148115.5,286046991.7,N
1696148135.4,286046994.7,N
1696148155.2,286046991.8,N
1696148175.1,286046993.2,N
1696148176.0,286046993.2,N
1696148195.8,286046991.1,N
1696148215.6,286046989.9,N
1696148235.5,286046987.0,Y
1696148255.3,286046990.2,P
1696148275.2,286046991.4,P
1696148295.9,286046990.5,P
1696148315.7,286046988.8,Y
1696148335.6,286046994.9,P
1696148355.4,286046996.1,N
1696148375.2,286046994.2,P
1696148395.1,286046994.7,Y
1696148396.0,286046994.7,P
1696148415.8,286046997.0,P
1696148435.7,286046996.7,N
1696148455.5,286046997.1,N
1696148475.3,286046995.1,Y
1696148495.2,286046998.3,P
1696148515.0,286047001.1,N
1696148515.9,286047001.1,N
1696148535.8,286046998.2,N
1696148555.6,286046998.5,N
1696148575.4,286046999.4,N
1696148595.3,286046997.3,N
1696148615.1,286046995.4,N
1696148635.9,286046993.7,Y
1696148655.7,286046996.0,P
1696148675.5,286046996.4,P
1696148695.4,286046994.5,P
1696148715.2,286046993.9,Y
1696148735.0,286046997.2,P
1696148736.0,286046997.2,P
1696148755.8,286046997.7,P
1696148775.6,286046997.5,Y
1696148795.5,286046999.2,P
1696148815.3,286046996.9,N
1696148835.1,286046997.4,N
1696148855.9,286046997.3,N
1696148875.7,286046996.7,Y
1696148895.6,286047000.8,P
1696148915.4,286046998.5,N
1696148935.2,286046998.5,N
1696148955.1,286047000.7,N
1696148956.0,286047000.7,N
1696148975.8,286047011.9,Y
1696148995.7,286046998.4,P
1696149015.5,286046997.5,P
1696149035.3,286046993.7,P
1696149055.2,286046991.8,Y
1696149075.0,286046995.7,P
1696149075.9,286046995.7,P
1696149095.7,286046994.2,P
1696149115.6,286046993.3,Y
1696149135.4,286046998.5,P
1696149155.3,286046998.6,N
1696149175.1,286046997.0,N
1696149176.0,286046997.0,N
1696149195.8,286046997.5,N
1696149215.7,286046997.4,N
1696149235.5,286046995.6,Y
1696149255.4,286046997.3,P
1696149275.2,286046997.9,P
1696149295.0,286046995.0,P
1696149295.9,286046995.0,Y
1696149315.8,286046999.3,P
1696149335.6,286046998.9,N
1696149355.4,286046998.5,N
1696149375.3,286047000.9,N
1696149395.1,286046998.6,N
1696149415.9,286046999.1,N
1696149435.7,286046997.4,N
1696149455.5,286046994.6,Y
1696149475.4,286046993.6,P
1696149495.2,286046996.4,N
1696149515.0,286046992.1,P
1696149515.9,286046992.1,Y
1696149535.8,286046997.1,P
1696149555.6,286046997.7,N
1696149575.5,286046997.8,N
1696149595.3,286046999.4,N
1696149615.1,286046997.7,N
1696149635.9,286046995.5,Y
1696149655.7,286046994.9,P
1696149675.5,286046993.7,P
1696149695.4,286046994.8,P
1696149715.2,286046991.8,Y
1696149735.1,286046999.5,P
1696149736.0,286046999.5,N
1696149755.8,286046997.3,N
1696149775.6,286046995.6,N
1696149795.5,286046996.3,N
1696149815.3,286046994.6,Y
1696149835.2,286046995.0,P
1696149855.9,286046993.3,P
1696149875.7,286046994.0,P
1696149895.6,286046992.3,Y
1696149915.4,286046997.3,P
1696149935.2,286046997.2,N
1696149955.1,286046995.4,P
1696149956.0,286046995.4,Y
1696149975.8,286046999.1,P
1696149995.7,286046999.4,N
1696150015.5,286046994.9,P
1696150035.3,286046994.9,N
1696150055.2,286046995.2,N
1696150075.0,286046993.3,Y
1696150075.9,286046993.3,P
1696150095.8,286046999.5,N
1696150115.6,286046999.3,N
1696150135.4,286046996.9,N
1696150155.3,286047000.8,N
1696150175.1,286046998.4,N
1696150195.8,286046999.6,N
1696150215.7,286046998.7,N
1696150235.5,286046999.6,N
1696150255.4,286046997.1,N
1696150275.2,286046997.3,N
1696150295.0,286046995.1,N
1696150295.9,286046995.1,N
1696150315.8,286046996.0,N
1696150335.6,286046993.4,Y
1696150355.4,286046997.9,P
1696150375.3,286046995.2,P
1696150395.1,286046994.7,P
1696150415.9,286046995.9,N
1696150435.7,286046993.6,Y
1696150455.5,286046996.5,P
1696150475.4,286046997.1,P
1696150495.2,286046997.4,P
1696150515.1,286046996.7,Y
1696150516.0,286046996.7,P
1696150535.8,286047000.3,P
1696150555.6,286046999.4,N
1696150575.5,286046998.7,N
1696150595.3,286046999.2,N
1696150615.1,286046998.8,N
1696150635.9,286046997.0,N
1696150655.7,286046993.3,Y
1696150675.6,286046995.8,P
1696150695.4,286046993.8,P
1696150715.2,286046991.9,P
1696150735.1,286046992.9,N
1696150736.0,286046992.9,Y
1696150755.8,286046995.5,P
1696150775.7,286046994.8,P
1696150795.5,286046991.7,P
